{"data":{"norad_id":63019,"epoch":"2026-09-21T10:37:05.986560Z","epoch_age_seconds":83388,"freshness":"FRESH","line1":"1 63019U 25032Q   26264.44243040  .00010570  00000+0  39298-3 0  9998","line2":"2 63019  43.0024 310.9061 0000639 271.5726  88.5052 15.27589759 90557","mean_motion":15.27589759,"eccentricity":6.39e-5,"inclination_deg":43.0024,"raan_deg":310.9061,"arg_perigee_deg":271.5726,"mean_anomaly_deg":88.5052,"bstar":0.00039298,"rev_number":9055,"period_min":94.26614649097,"perigee_km":482.58144631418,"apogee_km":483.45830216271,"semimajor_km":6861.1568742384,"source":"CELESTRAK","updated_at":"2026-09-22T09:00:49.741570Z"}}